Showing default

AEROCUBE 7, 40966

Orbit data source: Space-Track

AEROCUBE 7, 40966 is a payload satellite owned by AERO (US) in LEO that was launched on Thu, 08 Oct 2015 UTC via an ATLAS V 401 launch vehicle from the Air Force Western Test Range (AFWTR). Payload-class satellites include a variety of spacecraft equipped with specific instruments for various scientific and technological missions. These include communications satellites like Starlink; space stations such as the ISS; scientific satellites like the Hubble; Earth observation satellites from companies like Planet Labs, Umbra, and HawkEye 360; GPS; miniature CubeSats for education and research; and military/defense satellites.

Loading next visibility...
Identifier
40966, 2015-058C
Orbit
LEO
Country
Flag of USUS
Related business
Manufacturer
AERO
Mission
Operational Defense Technology
Bus & Motor
CUBESAT 1.5U, Unknown motor
Mass
2 kg wet, 2 kg dry
Launch date (UTC)
2015-10-08 (10 years ago)
Launch vehicle
ATLAS V 401
Launch site
Air Force Western Test Range (AFWTR)
Object type
Payload
Rocket body
Debris
Shape & HBR
Box, 0.1 m
Radar Cross Section
0.025 m², Medium (>0.1 m² and < 1m²)

Expand to show TLE details & history
Last TLE update: 13 hours ago

TLE from 13 hours ago
0 AEROCUBE 7
1 40966U 15058C   26037.13715942  .00006304  00000-0  51427-3 0  9999
2 40966  64.7631 294.9393 0122790 114.2145 247.1859 14.94540405346366
Epoch: 2026-02-06T03:17Z
TLE epoch observation values (Epoch: 2026-02-06T03:17:30.573Z)
Latitude
-0.00006°
Longitude
109.28253°
Altitude
619.846 km
Speed
7.531 km/s
True Right ascension
19h 39m 45s
True Declination
0° 00' 00"
Sunlit
Object was in daylight at epoch
Visualization orbit readout
Latitude
Unknown
Longitude
Unknown
Altitude
Unknown
Speed
Unknown
Apparent Right ascension
Unknown
Apparent Declination
Unknown
Sunlit
N/A
Visualization observer readout
Local Sidereal Time
18:01:03
Azimuth
Unknown
Elevation
Unknown
Doppler factor
Unknown
Orbital elements
Apogee altitude
667.834 km
Perigee altitude
496.898 km
Semi-major axis
6,960.503 km
Eccentricity
0.01228
Inclination
64.7631°
RAAN
294.9393°
Arg. of periapsis
114.2145°
True anomaly
245.89669°
Mean anomaly
247.1859°
Eccentric anomaly
246.54052°
Mean motion
3.73751 °/min
Orbital period
96.32 mins
BSTAR
0.00051427
Loading maneuver chart data...
Computing Atmospheric mass density...
Loading historical data...
Loading historical data...
Loading historical data...
Loading historical data...
Loading historical data...
Loading historical data...
Loading historical data...

Documentation

Showing up to 5 results
|